Time,TemperatureF,DewpointF,PressureIn,WindDirection,WindDirectionDegrees,WindSpeedMPH,WindSpeedGustMPH,Humidity,HourlyPrecipIn,Conditions,Clouds,dailyrainin,SoftwareType,DateUTC
2013-08-14 00:11:00,67.0,46.0,29.94,SSW,211,0.0,1.0,46,0.00,,,0.00,,2013-08-14 06:11:00,
2013-08-14 00:21:00,67.0,46.0,29.95,SSW,211,0.0,5.0,47,0.00,,,0.00,,2013-08-14 06:21:00,
2013-08-14 00:52:00,65.0,46.0,29.95,SSW,212,0.0,0.0,51,0.00,,,0.00,,2013-08-14 06:52:00,
2013-08-14 01:11:00,66.0,47.0,29.95,SSW,212,0.0,2.0,50,0.00,,,0.00,,2013-08-14 07:11:00,
2013-08-14 01:21:00,67.0,47.0,29.95,SSW,212,0.0,4.0,49,0.00,,,0.00,,2013-08-14 07:21:00,
2013-08-14 01:52:00,64.0,47.0,29.96,SSW,212,0.0,0.0,54,0.00,,,0.00,,2013-08-14 07:52:00,
2013-08-14 02:11:00,64.0,48.0,29.95,SSW,212,0.0,0.0,56,0.00,,,0.00,,2013-08-14 08:11:00,
2013-08-14 02:21:00,63.0,48.0,29.95,SSW,212,0.0,0.0,57,0.00,,,0.00,,2013-08-14 08:21:00,
2013-08-14 02:52:00,61.0,47.0,29.94,SSW,212,0.0,3.0,61,0.00,,,0.00,,2013-08-14 08:52:00,
2013-08-14 03:11:00,60.0,47.0,29.94,SSW,212,0.0,0.0,61,0.00,,,0.00,,2013-08-14 09:11:00,
2013-08-14 03:21:00,60.0,47.0,29.95,SSW,212,0.0,0.0,63,0.00,,,0.00,,2013-08-14 09:21:00,
2013-08-14 03:53:00,58.0,48.0,29.94,SSW,212,0.0,0.0,69,0.00,,,0.00,,2013-08-14 09:53:00,
2013-08-14 04:11:00,57.0,47.0,29.93,SSW,212,0.0,0.0,70,0.00,,,0.00,,2013-08-14 10:11:00,
2013-08-14 04:22:00,55.0,47.0,29.94,SSW,212,0.0,0.0,74,0.00,,,0.00,,2013-08-14 10:22:00,
2013-08-14 04:52:00,56.0,48.0,29.93,SSW,212,0.0,0.0,74,0.00,,,0.00,,2013-08-14 10:52:00,
2013-08-14 05:11:00,56.0,48.0,29.93,SSW,212,2.0,6.0,75,0.00,,,0.00,,2013-08-14 11:11:00,
2013-08-14 05:21:00,55.0,48.0,29.93,SSW,212,0.0,3.0,76,0.00,,,0.00,,2013-08-14 11:21:00,
2013-08-14 05:52:00,54.0,47.0,29.93,SSW,212,0.0,1.0,78,0.00,,,0.00,,2013-08-14 11:52:00,
2013-08-14 06:11:00,54.0,48.0,29.93,SSW,212,0.0,4.0,79,0.00,,,0.00,,2013-08-14 12:11:00,
2013-08-14 06:21:00,55.0,48.0,29.93,SSW,212,1.0,5.0,77,0.00,,,0.00,,2013-08-14 12:21:00,
2013-08-14 06:41:00,54.0,47.0,29.93,SSW,212,0.0,0.0,78,0.00,,,0.00,,2013-08-14 12:41:00,
2013-08-14 06:52:00,53.0,47.0,29.94,SSW,212,0.0,0.0,81,0.00,,,0.00,,2013-08-14 12:52:00,
2013-08-14 07:11:00,53.0,47.0,29.94,SSW,212,0.0,0.0,81,0.00,,,0.00,,2013-08-14 13:11:00,
2013-08-14 07:21:00,53.0,47.0,29.94,SSW,212,0.0,0.0,80,0.00,,,0.00,,2013-08-14 13:21:00,
2013-08-14 07:52:00,54.0,48.0,29.95,SSW,212,0.0,0.0,79,0.00,,,0.00,,2013-08-14 13:52:00,
2013-08-14 08:11:00,54.0,48.0,29.95,SSW,212,0.0,0.0,80,0.00,,,0.00,,2013-08-14 14:11:00,
2013-08-14 08:21:00,56.0,49.0,29.96,SSW,212,0.0,0.0,77,0.00,,,0.00,,2013-08-14 14:21:00,
2013-08-14 08:52:00,59.0,50.0,29.96,SSW,212,0.0,2.0,71,0.00,,,0.00,,2013-08-14 14:52:00,
2013-08-14 09:11:00,61.0,50.0,29.95,SSW,212,1.0,4.0,67,0.00,,,0.00,,2013-08-14 15:11:00,
2013-08-14 09:22:00,63.0,50.0,29.95,SSW,212,1.0,5.0,63,0.00,,,0.00,,2013-08-14 15:22:00,
2013-08-14 09:56:00,66.0,50.0,29.95,SSW,212,0.0,5.0,57,0.00,,,0.00,,2013-08-14 15:56:00,
2013-08-14 10:12:00,68.0,50.0,29.94,SSW,212,1.0,6.0,52,0.00,,,0.00,,2013-08-14 16:12:00,
2013-08-14 10:24:00,69.0,50.0,29.94,SSW,212,0.0,4.0,51,0.00,,,0.00,,2013-08-14 16:24:00,
2013-08-14 11:20:00,72.0,50.0,29.93,SSW,212,0.0,4.0,46,0.00,,,0.00,,2013-08-14 17:20:00,
2013-08-14 11:28:00,74.0,50.0,29.93,SSW,212,0.0,2.0,43,0.00,,,0.00,,2013-08-14 17:28:00,
2013-08-14 11:55:00,76.0,51.0,29.92,SSW,212,0.0,4.0,41,0.00,,,0.00,,2013-08-14 17:55:00,
2013-08-14 12:53:00,-999.0,-99.9,29.89,SSW,212,0.0,6.0,-999,-99.99,,,-99.99,,2013-08-14 18:53:00,
2013-08-14 13:12:00,80.0,48.0,29.89,SSW,212,0.0,2.0,33,0.00,,,0.00,,2013-08-14 19:12:00,
2013-08-14 13:23:00,80.0,48.0,29.89,SSW,212,0.0,2.0,33,0.00,,,0.00,,2013-08-14 19:23:00,
2013-08-14 13:52:00,81.0,48.0,29.88,SSW,212,1.0,7.0,32,0.00,,,0.00,,2013-08-14 19:52:00,
2013-08-14 14:12:00,83.0,44.0,29.87,SSW,212,0.0,4.0,25,0.00,,,0.00,,2013-08-14 20:12:00,
2013-08-14 14:52:00,85.0,44.0,29.85,SSW,212,0.0,3.0,24,0.00,,,0.00,,2013-08-14 20:52:00,
2013-08-14 15:13:00,85.0,43.0,29.85,SSW,212,2.0,5.0,23,0.00,,,0.00,,2013-08-14 21:13:00,
2013-08-14 15:23:00,84.0,43.0,29.85,SSW,208,0.0,5.0,24,0.00,,,0.00,,2013-08-14 21:23:00,
2013-08-14 15:55:00,85.0,39.0,29.84,SSW,208,1.0,4.0,20,0.00,,,0.00,,2013-08-14 21:55:00,
2013-08-14 16:12:00,87.0,41.0,29.83,SSW,208,0.0,1.0,20,0.00,,,0.00,,2013-08-14 22:12:00,
2013-08-14 16:23:00,86.0,40.0,29.83,SSW,202,0.0,3.0,20,0.00,,,0.00,,2013-08-14 22:23:00,
2013-08-14 16:54:00,87.0,41.0,29.82,SSW,202,0.0,5.0,20,0.00,,,0.00,,2013-08-14 22:54:00,
2013-08-14 17:13:00,87.0,41.0,29.81,SW,219,2.0,8.0,20,0.00,,,0.00,,2013-08-14 23:13:00,
2013-08-14 17:24:00,87.0,42.0,29.81,SW,223,3.0,9.0,21,0.00,,,0.00,,2013-08-14 23:24:00,
2013-08-14 17:46:00,87.0,41.0,29.81,SW,223,0.0,5.0,20,0.00,,,0.00,,2013-08-14 23:46:00,
2013-08-14 17:56:00,87.0,41.0,29.80,SW,223,0.0,2.0,20,0.00,,,0.00,,2013-08-14 23:56:00,
2013-08-14 18:12:00,87.0,41.0,29.80,SW,223,0.0,5.0,20,0.00,,,0.00,,2013-08-15 00:12:00,
2013-08-14 18:22:00,87.0,42.0,29.80,SW,223,0.0,3.0,21,0.00,,,0.00,,2013-08-15 00:22:00,
2013-08-14 18:43:00,87.0,41.0,29.80,SW,223,0.0,3.0,20,0.00,,,0.00,,2013-08-15 00:43:00,
2013-08-14 18:52:00,88.0,41.0,29.79,SW,223,0.0,1.0,19,0.00,,,0.00,,2013-08-15 00:52:00,
2013-08-14 19:16:00,88.0,42.0,29.79,SW,223,0.0,3.0,20,0.00,,,0.00,,2013-08-15 01:16:00,
2013-08-14 19:22:00,86.0,45.0,29.78,SW,221,0.0,4.0,24,0.00,,,0.00,,2013-08-15 01:22:00,
2013-08-14 19:52:00,85.0,47.0,29.80,SW,221,0.0,1.0,27,0.00,,,0.00,,2013-08-15 01:52:00,
2013-08-14 20:11:00,84.0,45.0,29.79,SW,221,0.0,1.0,26,0.00,,,0.00,,2013-08-15 02:11:00,
2013-08-14 20:21:00,83.0,40.0,29.79,SW,221,0.0,3.0,22,0.00,,,0.00,,2013-08-15 02:21:00,
2013-08-14 21:22:00,79.0,40.0,29.81,SW,221,0.0,1.0,25,0.00,,,0.00,,2013-08-15 03:22:00,
2013-08-14 21:53:00,79.0,40.0,29.83,WSW,247,2.0,14.0,25,0.00,,,0.00,,2013-08-15 03:53:00,
2013-08-14 22:12:00,79.0,41.0,29.84,WSW,247,0.0,1.0,26,0.00,,,0.00,,2013-08-15 04:12:00,
2013-08-14 22:22:00,78.0,44.0,29.84,WSW,248,0.0,6.0,30,0.00,,,0.00,,2013-08-15 04:22:00,
2013-08-14 22:52:00,76.0,45.0,29.84,NW,317,3.0,10.0,33,0.00,,,0.00,,2013-08-15 04:52:00,
2013-08-14 23:12:00,76.0,46.0,29.84,NNW,327,3.0,14.0,34,0.00,,,0.00,,2013-08-15 05:12:00,
2013-08-14 23:22:00,76.0,46.0,29.84,NNW,327,1.0,10.0,35,0.00,,,0.00,,2013-08-15 05:22:00,
2013-08-14 23:52:00,74.0,46.0,29.83,NNW,327,2.0,7.0,37,0.00,,,0.00,,2013-08-15 05:52:00,